H1 CPF 2 NER 2024 12 2 9 337 01 glonass147 H2 2311401 9147 57517 2024 12 2 0 0 0 2024 12 5 23 45 0 900 1 1 0 0 0 1 H9 10 0 60646 0.00000 0 13672689.312 -5304046.235 -20847873.207 10 0 60646 900.00000 0 16052062.922 -4598591.716 -19258897.517 10 0 60646 1800.00000 0 18265135.167 -4125128.580 -17295064.491 10 0 60646 2700.00000 0 20249042.642 -3864857.061 -14994602.314 10 0 60646 3600.00000 0 21947616.465 -3787919.266 -12402301.339 10 0 60646 4500.00000 0 23313596.020 -3854878.189 -9568636.656 10 0 60646 5400.00000 0 24310484.054 -4018610.183 -6548778.425 10 0 60646 6300.00000 0 24913965.403 -4226529.501 -3401509.805 10 0 60646 7200.00000 0 25112830.021 -4423049.429 -188074.352 10 0 60646 8100.00000 0 24909362.148 -4552174.439 3029023.751 10 0 60646 9000.00000 0 24319180.086 -4560112.370 6187242.373 10 0 60646 9900.00000 0 23370534.400 -4397794.950 9225222.279 10 0 60646 10800.00000 0 22103095.263 -4023199.204 12083981.731 10 0 60646 11700.00000 0 20566281.175 -3403370.966 14708061.208 10 0 60646 12600.00000 0 18817200.326 -2516064.749 17046595.892 10 0 60646 13500.00000 0 16918291.892 -1350930.635 19054295.467 10 0 60646 14400.00000 0 14934766.559 89801.821 20692312.858 10 0 60646 15300.00000 0 12931953.478 1791171.440 21928986.065 10 0 60646 16200.00000 0 10972664.162 3725871.590 22740439.878 10 0 60646 17100.00000 0 9114682.450 5855158.858 23111037.102 10 0 60646 18000.00000 0 7408484.089 8130246.884 23033671.679 10 0 60646 18900.00000 0 5895279.432 10494128.091 22509899.071 10 0 60646 19800.00000 0 4605459.193 12883748.620 21549902.008 10 0 60646 20700.00000 0 3557506.450 15232447.233 20172292.602 10 0 60646 21600.00000 0 2757418.746 17472558.187 18403754.551 10 0 60646 22500.00000 0 2198663.164 19538071.244 16278531.884 10 0 60646 23400.00000 0 1862665.333 21367239.389 13837773.431 10 0 60646 24300.00000 0 1719811.243 22905026.731 11128744.718 10 0 60646 25200.00000 0 1730919.515 24105295.334 8203921.532 10 0 60646 26100.00000 0 1849122.198 24932640.082 5119981.719 10 0 60646 27000.00000 0 2022074.925 25363794.996 1936713.915 10 0 60646 27900.00000 0 2194403.365 25388551.885 -1284136.314 10 0 60646 28800.00000 0 2310282.640 25010152.347 -4480060.883 10 0 60646 29700.00000 0 2316040.572 24245135.983 -7589001.100 10 0 60646 30600.00000 0 2162674.226 23122650.390 -10550553.497 10 0 60646 31500.00000 0 1808172.604 21683251.140 -13307145.796 10 0 60646 32400.00000 0 1219546.255 19977241.348 -15805159.806 10 0 60646 33300.00000 0 374476.718 18062619.921 -17995978.972 10 0 60646 34200.00000 0 -737485.418 16002724.101 -19836939.728 10 0 60646 35100.00000 0 -2114226.081 13863664.819 -21292167.739 10 0 60646 36000.00000 0 -3740908.019 11711662.127 -22333282.421 10 0 60646 36900.00000 0 -5590354.365 9610392.210 -22939955.674 10 0 60646 37800.00000 0 -7623961.148 7618456.942 -23100313.687 10 0 60646 38700.00000 0 -9793102.059 5787081.804 -22811173.689 10 0 60646 39600.00000 0 -12040967.934 4158138.357 -22078110.749 10 0 60646 40500.00000 0 -14304765.007 2762573.780 -20915352.970 10 0 60646 41400.00000 0 -16518180.636 1619312.809 -19345506.809 10 0 60646 42300.00000 0 -18614013.692 734677.527 -17399117.552 10 0 60646 43200.00000 0 -20526859.609 102348.514 -15114073.287 10 0 60646 44100.00000 0 -22195737.514 -296132.052 -12534863.880 10 0 60646 45000.00000 0 -23566549.033 -490337.732 -9711709.506 10 0 60646 45900.00000 0 -24594265.341 -519460.161 -6699576.038 10 0 60646 46800.00000 0 -25244750.426 -430401.097 -3557096.985 10 0 60646 47700.00000 0 -25496143.856 -275536.445 -345423.819 10 0 60646 48600.00000 0 -25339745.154 -110248.375 2872972.080 10 0 60646 49500.00000 0 -24780363.007 9668.530 6035521.567 10 0 60646 50400.00000 0 -23836115.354 30616.053 9080779.264 10 0 60646 51300.00000 0 -22537689.670 -96295.403 11949620.007 10 0 60646 52200.00000 0 -20927095.535 -412938.042 14586386.549 10 0 60646 53100.00000 0 -19055962.834 -952159.386 16939966.067 10 0 60646 54000.00000 0 -16983457.805 -1736161.353 18964774.919 10 0 60646 54900.00000 0 -14773904.662 -2775334.019 20621633.193 10 0 60646 55800.00000 0 -12494212.465 -4067593.035 21878513.042 10 0 60646 56700.00000 0 -10211214.336 -5598248.509 22711147.512 10 0 60646 57600.00000 0 -7989029.238 -7340410.992 23103489.284 10 0 60646 58500.00000 0 -5886555.090 -9255917.910 23048011.659 10 0 60646 59400.00000 0 -3955196.067 -11296742.403 22545846.947 10 0 60646 60300.00000 0 -2236917.000 -13406826.704 21606760.250 10 0 60646 61200.00000 0 -762704.086 -15524264.764 20248959.506 10 0 60646 62100.00000 0 448505.663 -17583744.481 18498745.363 10 0 60646 63000.00000 0 1390383.136 -19519149.142 16390007.230 10 0 60646 63900.00000 0 2069231.915 -21266210.910 13963574.521 10 0 60646 64800.00000 0 2503479.039 -22765106.799 11266434.729 10 0 60646 65700.00000 0 2722653.706 -23962889.583 8350832.391 10 0 60646 66600.00000 0 2765897.100 -24815652.518 5273265.457 10 0 60646 67500.00000 0 2680066.154 -25290337.411 2093397.608 10 0 60646 68400.00000 0 2517511.153 -25366110.034 -1127093.047 10 0 60646 69300.00000 0 2333620.944 -25035244.617 -4325706.947 10 0 60646 70200.00000 0 2184239.560 -24303479.470 -7440334.714 10 0 60646 71100.00000 0 2123063.734 -23189827.804 -10410463.875 10 0 60646 72000.00000 0 2199131.896 -21725850.614 -13178356.864 10 0 60646 72900.00000 0 2454511.620 -19954421.133 -15690177.088 10 0 60646 73800.00000 0 2922284.330 -17928031.736 -17897040.666 10 0 60646 74700.00000 0 3624913.707 -15706713.496 -19755972.949 10 0 60646 75600.00000 0 4573068.129 -13355654.966 -21230750.784 10 0 60646 76500.00000 0 5764948.420 -10942619.371 -22292613.806 10 0 60646 77400.00000 0 7186150.880 -8535267.956 -22920830.540 10 0 60646 78300.00000 0 8810073.005 -6198501.151 -23103108.069 10 0 60646 79200.00000 0 10598846.390 -3991928.431 -22835836.958 10 0 60646 80100.00000 0 12504759.009 -1967572.414 -22124166.382 10 0 60646 81000.00000 0 14472108.305 -167902.821 -20981907.663 10 0 60646 81900.00000 0 16439408.181 1375717.902 -19431267.752 10 0 60646 82800.00000 0 18341857.844 2644112.838 -17502417.555 10 0 60646 83700.00000 0 20113969.081 3630848.342 -15232903.253 10 0 60646 84600.00000 0 21692241.684 4342248.920 -12666912.023 10 0 60646 85500.00000 0 23017774.338 4796869.824 -9854406.526 10 0 60647 0.00000 0 24038700.806 5024451.045 -6850145.653 10 0 60647 900.00000 0 24712349.068 5064398.473 -3712609.467 10 0 60647 1800.00000 0 25007030.959 4963857.806 -502854.147 10 0 60647 2700.00000 0 24903388.669 4775464.709 2716685.275 10 0 60647 3600.00000 0 24395240.091 4554867.659 5883416.142 10 0 60647 4500.00000 0 23489888.417 4358129.916 8935810.254 10 0 60647 5400.00000 0 22207883.377 4239121.685 11814602.081 10 0 60647 6300.00000 0 20582244.926 4247013.651 14463939.354 10 0 60647 7200.00000 0 18657182.689 4423978.383 16832463.562 10 0 60647 8100.00000 0 16486365.585 4803196.836 18874299.648 10 0 60647 9000.00000 0 14130814.496 5407254.009 20549936.367 10 0 60647 9900.00000 0 11656506.283 6246991.084 21826981.136 10 0 60647 10800.00000 0 9131788.868 7320862.074 22680775.960 10 0 60647 11700.00000 0 6624714.458 8614821.833 23094863.718 10 0 60647 12600.00000 0 4200400.859 10102750.136 23061296.987 10 0 60647 13500.00000 0 1918529.190 11747394.411 22580784.426 10 0 60647 14400.00000 0 -168919.662 13501792.299 21662672.605 10 0 60647 15300.00000 0 -2019597.535 15311115.518 20324763.969 10 0 60647 16200.00000 0 -3602311.851 17114859.147 18592974.428 10 0 60647 17100.00000 0 -4898077.157 18849286.187 16500836.740 10 0 60647 18000.00000 0 -5900652.914 20450026.531 14088858.613 10 0 60647 18900.00000 0 -6616546.268 21854722.884 11403746.987 10 0 60647 19800.00000 0 -7064480.535 23005613.892 8497512.483 10 0 60647 20700.00000 0 -7274352.183 23851946.885 5426470.365 10 0 60647 21600.00000 0 -7285720.470 24352119.336 2250156.507 10 0 60647 22500.00000 0 -7145893.357 24475459.016 -969821.322 10 0 60647 23400.00000 0 -6907690.461 24203567.517 -4170974.950 10 0 60647 24300.00000 0 -6626977.502 23531169.804 -7291147.103 10 0 60647 25200.00000 0 -6360076.588 22466432.985 -10269718.945 10 0 60647 26100.00000 0 -6161162.151 21030739.616 -13048790.080 10 0 60647 27000.00000 0 -6079753.186 19257923.748 -15574307.708 10 0 60647 27900.00000 0 -6158408.573 17193000.516 -17797122.550 10 0 60647 28800.00000 0 -6430723.907 14890441.400 -19673950.510 10 0 60647 29700.00000 0 -6919715.551 12412066.445 -21168220.969 10 0 60647 30600.00000 0 -7636661.466 9824640.843 -22250794.837 10 0 60647 31500.00000 0 -8580449.051 7197275.775 -22900538.046 10 0 60647 32400.00000 0 -9737458.878 4598741.642 -23104739.027 10 0 60647 33300.00000 0 -11081990.595 2094805.465 -22859361.794 10 0 60647 34200.00000 0 -12577214.290 -254296.678 -22169129.358 10 0 60647 35100.00000 0 -14176608.399 -2396146.999 -21047435.569 10 0 60647 36000.00000 0 -15825824.522 -4288098.048 -19516086.751 10 0 60647 36900.00000 0 -17464901.321 -5898808.351 -17604877.881 10 0 60647 37800.00000 0 -19030734.652 -7209298.139 -15351011.318 10 0 60647 38700.00000 0 -20459700.048 -8213481.833 -12798369.295 10 0 60647 39600.00000 0 -21690316.903 -8918156.113 -9996654.473 10 0 60647 40500.00000 0 -22665841.780 -9342445.423 -7000415.544 10 0 60647 41400.00000 0 -23336681.079 -9516729.889 -3867977.424 10 0 60647 42300.00000 0 -23662520.896 -9481102.517 -660297.616 10 0 60647 43200.00000 0 -23614083.924 -9283422.620 2560228.093 10 0 60647 44100.00000 0 -23174439.138 -8977049.453 5730986.446 10 0 60647 45000.00000 0 -22339809.110 -8618353.489 8790369.314 10 0 60647 45900.00000 0 -21119841.210 -8264111.937 11678973.616 10 0 60647 46800.00000 0 -19537331.694 -7968899.661 14340754.750 10 0 60647 47700.00000 0 -17627414.799 -7782586.423 16724110.982 10 0 60647 48600.00000 0 -15436251.363 -7748046.409 18782878.014 10 0 60647 49500.00000 0 -13019272.214 -7899176.602 20477215.068 10 0 60647 50400.00000 0 -10439049.926 -8259307.151 21774366.208 10 0 60647 51300.00000 0 -7762887.501 -8840070.172 22649283.334 10 0 60647 52200.00000 0 -5060223.827 -9640774.050 23085100.006 10 0 60647 53100.00000 0 -2399962.902 -10648309.143 23073448.133 10 0 60647 54000.00000 0 152163.544 -11837588.757 22614612.401 10 0 60647 54900.00000 0 2536092.084 -13172507.116 21717520.183 10 0 60647 55800.00000 0 4699680.400 -14607374.754 20399567.483 10 0 60647 56700.00000 0 6600625.072 -16088772.109 18686284.245 10 0 60647 57600.00000 0 8207966.365 -17557744.780 16610845.101 10 0 60647 58500.00000 0 9503118.900 -18952249.731 14213434.309 10 0 60647 59400.00000 0 10480386.532 -20209751.115 11540476.262 10 0 60647 60300.00000 0 11146940.913 -21269857.909 8643745.404 10 0 60647 61200.00000 0 11522265.315 -22076893.410 5579371.825 10 0 60647 62100.00000 0 11637087.453 -22582289.064 2406760.908 10 0 60647 63000.00000 0 11531846.366 -22746701.999 -812552.741 10 0 60647 63900.00000 0 11254757.945 -22541766.725 -4016095.224 10 0 60647 64800.00000 0 10859560.724 -21951406.458 -7141664.275 10 0 60647 65700.00000 0 10403037.116 -20972647.752 -10128537.555 10 0 60647 66600.00000 0 9942415.017 -19615902.733 -12918654.601 10 0 60647 67500.00000 0 9532759.892 -17904705.581 -15457749.032 10 0 60647 68400.00000 0 9224468.100 -15874912.774 -17696408.599 10 0 60647 69300.00000 0 9060968.063 -13573399.179 -19591041.932 10 0 60647 70200.00000 0 9076727.239 -11056303.354 -21104732.794 10 0 60647 71100.00000 0 9295649.997 -8386894.312 -22207964.847 10 0 60647 72000.00000 0 9729935.051 -5633148.075 -22879202.467 10 0 60647 72900.00000 0 10379441.733 -2865134.472 -23105316.051 10 0 60647 73800.00000 0 11231592.845 -152322.653 -22881843.231 10 0 60647 74700.00000 0 12261819.229 2439082.667 -22213080.609 10 0 60647 75600.00000 0 13434528.176 4848663.541 -21112003.934 10 0 60647 76500.00000 0 14704555.606 7024064.853 -19600017.911 10 0 60647 77400.00000 0 16019041.345 8922929.469 -17706540.253 10 0 60647 78300.00000 0 17319648.711 10514412.212 -15468427.807 10 0 60647 79200.00000 0 18545034.878 11780210.040 -12929255.851 10 0 60647 80100.00000 0 19633467.556 12715066.214 -10138464.673 10 0 60647 81000.00000 0 20525477.169 13326728.530 -7150390.354 10 0 60647 81900.00000 0 21166432.039 13635364.790 -4023199.157 10 0 60647 82800.00000 0 21508927.235 13672461.791 -817747.005 10 0 60647 83700.00000 0 21514885.695 13479255.999 2403612.841 10 0 60647 84600.00000 0 21157282.489 13104763.938 5578249.796 10 0 60647 85500.00000 0 20421419.252 12603497.183 8644478.977 10 0 60648 0.00000 0 19305695.118 12032960.056 11542762.473 10 0 60648 900.00000 0 17821841.175 11451036.626 14216866.573 10 0 60648 1800.00000 0 15994610.410 10913378.986 16614948.457 10 0 60648 2700.00000 0 13860934.485 10470906.374 18690556.659 10 0 60648 3600.00000 0 11468584.288 10167521.377 20403522.606 10 0 60648 4500.00000 0 8874389.793 10038138.756 21720728.393 10 0 60648 5400.00000 0 6142093.401 10107109.246 22616736.837 10 0 60648 6300.00000 0 3339925.612 10387103.861 23074272.829 10 0 60648 7200.00000 0 538003.001 10878504.834 23084547.855 10 0 60648 8100.00000 0 -2194344.656 11569328.187 22647422.440 10 0 60648 9000.00000 0 -4791208.671 12435680.893 21771404.127 10 0 60648 9900.00000 0 -7192589.497 13442733.541 20473481.380 10 0 60648 10800.00000 0 -9346637.054 14546168.111 18778796.650 10 0 60648 11700.00000 0 -11211552.003 15694040.931 16720164.516 10 0 60648 12600.00000 0 -12757070.465 16828983.575 14337443.537 10 0 60648 13500.00000 0 -13965471.698 17890650.405 11676773.053 10 0 60648 14400.00000 0 -14832067.746 18818310.959 8789688.663 10 0 60648 15300.00000 0 -15365155.311 19553478.999 5732132.517 10 0 60648 16200.00000 0 -15585432.360 20042468.148 2563376.694 10 0 60648 17100.00000 0 -15524904.142 20238766.652 -655120.172 10 0 60648 18000.00000 0 -15225324.690 20105130.923 -3860901.256 10 0 60648 18900.00000 0 -14736239.404 19615308.939 -6991722.025 10 0 60648 19800.00000 0 -14112711.236 18755319.773 -9986759.276 10 0 60648 20700.00000 0 -13412826.444 17524233.964 -12787794.963 10 0 60648 21600.00000 0 -12695085.414 15934420.262 -15340351.414 10 0 60648 22500.00000 0 -12015788.998 14011246.636 -17594755.450 10 0 60648 23400.00000 0 -11426531.208 11792246.416 -19507110.186 10 0 60648 24300.00000 0 -10971904.661 9325782.895 -21040155.234 10 0 60648 25200.00000 0 -10687516.280 6669266.853 -22163998.163 10 0 60648 26100.00000 0 -10598397.695 3887000.320 -22856702.654 10 0 60648 27000.00000 0 -10717878.114 1047735.645 -23104721.600 10 0 60648 27900.00000 0 -11046967.937 -1777949.114 -22903166.457 10 0 60648 28800.00000 0 -11574279.764 -4520349.556 -22255907.279 10 0 60648 29700.00000 0 -12276490.726 -7113296.983 -21175501.194 10 0 60648 30600.00000 0 -13119327.119 -9496672.535 -19682950.400 10 0 60648 31500.00000 0 -14059030.110 -11618668.797 -17807294.080 10 0 60648 32400.00000 0 -15044240.783 -13437704.912 -15585041.971 10 0 60648 33300.00000 0 -16018224.862 -14923915.654 -13059460.489 10 0 60648 34200.00000 0 -16921342.829 -16060152.835 -10279725.409 10 0 60648 35100.00000 0 -17693660.560 -16842458.039 -7299957.879 10 0 60648 36000.00000 0 -18277589.491 -17279988.026 -4178163.032 10 0 60648 36900.00000 0 -18620443.973 -17394397.392 -975092.630 10 0 60648 37800.00000 0 -18676806.984 -17218706.108 2246945.270 10 0 60648 38700.00000 0 -18410603.590 -16795701.405 5425305.515 10 0 60648 39600.00000 0 -17796794.084 -16175943.161 8498229.274 10 0 60648 40500.00000 0 -16822615.088 -15415458.541 11406047.134 10 0 60648 41400.00000 0 -15488316.157 -14573224.546 14092338.020 10 0 60648 42300.00000 0 -13807360.952 -13708545.674 16505021.218 10 0 60648 43200.00000 0 -11806084.657 -12878437.828 18597360.548 10 0 60648 44100.00000 0 -9522822.041 -12135128.782 20328861.795 10 0 60648 45000.00000 0 -7006542.684 -11523780.123 21666046.887 10 0 60648 45900.00000 0 -4315050.076 -11080525.751 22583090.959 10 0 60648 46800.00000 0 -1512819.111 -10830908.449 23062311.206 10 0 60648 47700.00000 0 1331438.866 -10788779.099 23094499.245 10 0 60648 48600.00000 0 4147383.453 -10955703.782 22679091.603 10 0 60648 49500.00000 0 6865718.241 -11320902.855 21824175.785 10 0 60648 50400.00000 0 9420820.175 -11861724.061 20546332.175 10 0 60648 51300.00000 0 11753217.857 -12544629.754 18870314.872 10 0 60648 52200.00000 0 13811817.585 -13326657.042 16828577.227 10 0 60648 53100.00000 0 15555786.133 -14157290.137 14460650.598 10 0 60648 54000.00000 0 16956013.272 -14980666.978 11812387.430 10 0 60648 54900.00000 0 17996094.144 -15738028.234 8935082.278 10 0 60648 55800.00000 0 18672791.158 -16370306.349 5884486.810 10 0 60648 56700.00000 0 18995956.582 -16820746.175 2719736.958 10 0 60648 57600.00000 0 18987919.278 -17037446.972 -497787.699 10 0 60648 58500.00000 0 18682361.305 -16975718.443 -3705650.626 10 0 60648 59400.00000 0 18122731.591 -16600150.847 -6841568.283 10 0 60648 60300.00000 0 17360263.280 -15886310.910 -9844619.799 10 0 60648 61200.00000 0 16451678.247 -14821990.662 -12656432.600 10 0 60648 62100.00000 0 15456675.545 -13407954.987 -15222320.571 10 0 60648 63000.00000 0 14435309.830 -11658154.601 -17492352.187 10 0 60648 63900.00000 0 13445370.560 -9599393.622 -19422327.345 10 0 60648 64800.00000 0 12539872.847 -7270463.878 -20974643.443 10 0 60648 65700.00000 0 11764766.124 -4720780.450 -22119033.528 10 0 60648 66600.00000 0 11156957.714 -2008574.087 -22833161.738 10 0 60648 67500.00000 0 10742734.997 801285.301 -23103064.194 10 0 60648 68400.00000 0 10536653.105 3639744.245 -22923426.481 10 0 60648 69300.00000 0 10540935.390 6436198.761 -22297691.992 10 0 60648 70200.00000 0 10745412.190 9121195.617 -21237998.740 10 0 60648 71100.00000 0 11128000.659 11629089.637 -19764945.546 10 0 60648 72000.00000 0 11655705.446 13900546.444 -17907191.851 10 0 60648 72900.00000 0 12286097.861 15884786.471 -15700898.722 10 0 60648 73800.00000 0 12969210.753 17541476.812 -13189021.820 10 0 60648 74700.00000 0 13649768.540 18842192.175 -10420470.173 10 0 60648 75600.00000 0 14269657.419 19771384.412 -7449147.438 10 0 60648 76500.00000 0 14770530.509 20326820.853 -4332894.775 10 0 60648 77400.00000 0 15096436.784 20519474.149 -1132356.707 10 0 60648 78300.00000 0 15196361.701 20372869.700 2090207.128 10 0 60648 79200.00000 0 15026571.227 19921919.686 5272140.276 10 0 60648 80100.00000 0 14552659.484 19211294.475 8351613.171 10 0 60648 81000.00000 0 13751212.993 18293401.674 11268827.718 10 0 60648 81900.00000 0 12611021.002 17226059.410 13967178.851 10 0 60648 82800.00000 0 11133780.736 16069963.040 16394350.286 10 0 60648 83700.00000 0 9334267.884 14886052.686 18503323.419 10 0 60648 84600.00000 0 7239965.108 13732892.645 20253280.380 10 0 60648 85500.00000 0 4890164.075 12664172.652 21610384.571 10 0 60649 0.00000 0 2334578.501 11726435.376 22548424.662 10 0 60649 900.00000 0 -368475.853 10957124.045 23049311.215 10 0 60649 1800.00000 0 -3154255.761 10383032.094 23103416.347 10 0 60649 2700.00000 0 -5954034.908 10019216.846 22709752.606 10 0 60649 3600.00000 0 -8697714.524 9868422.863 21875986.986 10 0 60649 4500.00000 0 -11316494.767 9921037.602 20618290.825 10 0 60649 5400.00000 0 -13745497.387 10155580.696 18961028.412 10 0 60649 6300.00000 0 -15926232.461 10539706.028 16936289.965 10 0 60649 7200.00000 0 -17808808.164 11031674.641 14583277.338 10 0 60649 8100.00000 0 -19353792.958 11582236.938 11947553.485 10 0 60649 9000.00000 0 -20533653.683 12136845.589 9080169.112 10 0 60649 9900.00000 0 -21333710.187 12638106.577 6036682.492 10 0 60649 10800.00000 0 -21752567.024 13028365.613 2876090.464 10 0 60649 11700.00000 0 -21802004.263 13252321.130 -340309.368 10 0 60649 12600.00000 0 -21506331.884 13259553.570 -3550103.621 10 0 60649 13500.00000 0 -20901234.666 13006863.760 -6690972.527 10 0 60649 14400.00000 0 -20032155.856 12460320.852 -9701900.215 10 0 60649 15300.00000 0 -18952287.387 11596932.204 -12524362.111 10 0 60649 16200.00000 0 -17720251.096 10405863.237 -15103465.993 10 0 60649 17100.00000 0 -16397568.524 8889154.087 -17389024.085 10 0 60649 18000.00000 0 -15046025.890 7061901.004 -19336534.847 10 0 60649 18900.00000 0 -13725045.381 4951892.890 -20908054.921 10 0 60649 19800.00000 0 -12489173.586 2598716.304 -22072943.918 10 0 60649 20700.00000 0 -11385793.059 52364.708 -22808467.145 10 0 60649 21600.00000 0 -10453153.534 -2628591.451 -23100244.308 10 0 60649 22500.00000 0 -9718805.821 -5379198.647 -22942535.115 10 0 60649 23400.00000 0 -9198504.410 -8130587.572 -22338355.953 10 0 60649 24300.00000 0 -8895624.969 -10812611.633 -21299425.054 10 0 60649 25200.00000 0 -8801121.195 -13356547.076 -19845936.885 10 0 60649 26100.00000 0 -8894022.542 -15697742.367 -18006169.885 10 0 60649 27000.00000 0 -9142451.476 -17778106.392 -15815934.948 10 0 60649 27900.00000 0 -9505116.730 -19548331.692 -13317875.273 10 0 60649 28800.00000 0 -9933218.762 -20969759.882 -10560631.278 10 0 60649 29700.00000 0 -10372685.982 -22015811.497 -7597887.145 10 0 60649 30600.00000 0 -10766646.159 -22672920.840 -4487317.996 10 0 60649 31500.00000 0 -11058027.325 -22940937.380 -1289458.970 10 0 60649 32400.00000 0 -11192177.037 -22832977.902 1933480.943 10 0 60649 33300.00000 0 -11119388.091 -22374736.921 5118836.304 10 0 60649 34200.00000 0 -10797222.971 -21603285.841 8204709.224 10 0 60649 35100.00000 0 -10192538.057 -20565412.934 11131175.424 10 0 60649 36000.00000 0 -9283121.616 -19315575.455 13841448.391 10 0 60649 36900.00000 0 -8058876.209 -17913551.273 16282978.803 10 0 60649 37800.00000 0 -6522495.554 -16421889.692 18408468.089 10 0 60649 38700.00000 0 -4689607.320 -14903268.979 20176776.998 10 0 60649 39600.00000 0 -2588375.746 -13417871.519 21553712.446 10 0 60649 40500.00000 0 -258580.447 -12020886.145 22512678.508 10 0 60649 41400.00000 0 2249790.555 -10760241.339 23035180.171 10 0 60649 42300.00000 0 4878375.655 -9674662.943 23111171.298 10 0 60649 43200.00000 0 7562626.928 -8792136.215 22739241.120 10 0 60649 44100.00000 0 10234260.214 -8128835.060 21926636.437 10 0 60649 45000.00000 0 12823867.610 -7688561.888 20689119.505 10 0 60649 45900.00000 0 15263585.484 -7462720.409 19050664.423 10 0 60649 46800.00000 0 17489708.751 -7430821.723 17042997.541 10 0 60649 47700.00000 0 19445144.177 -7561502.014 14704990.121 10 0 60649 48600.00000 0 21081601.936 -7814009.076 12081914.139 10 0 60649 49500.00000 0 22361435.091 -8140095.329 9224574.570 10 0 60649 50400.00000 0 23259050.916 -8486238.021 6188333.990 10 0 60649 51300.00000 0 23761835.419 -8796093.406 3032047.460 10 0 60649 52200.00000 0 23870552.417 -9013081.690 -183072.407 10 0 60649 53100.00000 0 23599200.199 -9082993.633 -3394638.634 10 0 60649 54000.00000 0 22974331.454 -8956508.482 -6540298.595 10 0 60649 54900.00000 0 22033864.533 -8591516.223 -9558944.797 10 0 60649 55800.00000 0 20825435.566 -7955145.083 -12391903.929 10 0 60649 56700.00000 0 19404360.338 -7025407.327 -14984080.722 10 0 60649 57600.00000 0 17831291.325 -5792392.285 -17285033.955 10 0 60649 58500.00000 0 16169668.272 -4258954.502 -19249963.161 10 0 60649 59400.00000 0 14483069.432 -2440866.076 -20840586.412 10 0 60649 60300.00000 0 12832574.833 -366424.799 -22025891.727 10 0 60649 61200.00000 0 11274252.432 1924467.347 -22782747.077 10 0 60649 62100.00000 0 9856872.847 4381718.475 -23096356.859 10 0 60649 63000.00000 0 8619948.657 6946896.189 -22960555.631 10 0 60649 63900.00000 0 7592180.610 9555435.988 -22377933.102 10 0 60649 64800.00000 0 6790375.845 12139117.357 -21359787.649 10 0 60649 65700.00000 0 6218883.287 14628704.772 -19925908.920 10 0 60649 66600.00000 0 5869569.538 16956643.671 -18104193.501 10 0 60649 67500.00000 0 5722335.617 19059698.904 -15930100.871 10 0 60649 68400.00000 0 5746151.989 20881425.420 -13445960.133 10 0 60649 69300.00000 0 5900567.239 22374367.727 -10700141.090 10 0 60649 70200.00000 0 6137625.544 23501896.084 -7746106.065 10 0 60649 71100.00000 0 6404110.672 24239602.621 -4641361.417 10 0 60649 72000.00000 0 6644020.266 24576199.187 -1446329.893 10 0 60649 72900.00000 0 6801164.416 24513879.906 1776833.384 10 0 60649 73800.00000 0 6821777.288 24068134.155 4965457.325 10 0 60649 74700.00000 0 6657030.225 23267018.993 8057579.081 10 0 60649 75600.00000 0 6265339.123 22149922.964 10993151.473 10 0 60649 76500.00000 0 5614367.928 20765874.581 13715209.677 10 0 60649 77400.00000 0 4682643.270 19171467.791 16170974.259 10 0 60649 78300.00000 0 3460711.924 17428492.527 18312869.337 10 0 60649 79200.00000 0 1951792.304 15601370.307 20099436.658 10 0 60649 80100.00000 0 171892.506 13754502.539 21496128.700 10 0 60649 81000.00000 0 -1850610.214 11949642.188 22475966.565 10 0 60649 81900.00000 0 -4075911.301 10243397.892 23020051.117 10 0 60649 82800.00000 0 -6454203.346 8684973.659 23117918.704 10 0 60649 83700.00000 0 -8927524.616 7314237.025 22767735.595 10 0 60649 84600.00000 0 -11431955.822 6160194.707 21976328.217 10 0 60649 85500.00000 0 -13900075.085 5239937.783 20759049.017 99